Amarillo, TX

2:09 AM CST on November 19, 2019 (GMT -0600)
Amarillo International

Weather History for KAMA - May, 2019

Change the Weather History Date:

Wednesday, May 8, 2019

  Actual Average Record
Temperature  
Mean Temperature 59 °F 63 °F  
Max Temperature 71 °F 77 °F 98 °F (1996)
Min Temperature 47 °F 49 °F 33 °F (1976)
Degree Days  
Heating Degree Days 6 4  
Month to date heating degree days 30 36  
Since 1 July heating degree days 4013 4124  
Cooling Degree Days 0 2  
Month to date cooling degree days 7 14  
Year to date cooling degree days 23 35  
Growing Degree Days 10 (Base 50)    
Moisture  
Dew Point 52 °F    
Average Humidity 77    
Maximum Humidity 100    
Minimum Humidity 53    
Precipitation  
Precipitation 0.12 in 0.06 in 2.28 in (1892)
Month to date precipitation 0.86 0.42  
Year to date precipitation 4.95 4.49  
Snow  
Snow 0.00 in 0.00 in T in (1954)
Month to date snowfall 0.0 0.1  
Since 1 July snowfall 8.1 17.7  
Snow Depth 0.00 in    
Sea Level Pressure  
Sea Level Pressure 29.68 in    
Wind  
Wind Speed 14 mph (NE)    
Max Wind Speed 30 mph    
Max Gust Speed 37 mph    
Visibility 7 miles    
Events Fog , Rain , Thunderstorm    
T = Trace of Precipitation, MM = Missing Value Source: NWS Daily Summary

Daily Weather History Graph

Daily Weather History Graph

Search for Another Location

Airport or City:

Astronomy

May. 08, 2019 Rise Set
Actual Time 6:48 AM CDT 8:38 PM CDT
Civil Twilight 6:21 AM CDT 9:06 PM CDT
Nautical Twilight 5:47 AM CDT 9:39 PM CDT
Astronomical Twilight 5:12 AM CDT 10:15 PM CDT
Moon 9:51 AM CDT (5/8) No Moon Set
Length of Visible Light 14h 44m
Length of Day
13h 49m
Waxing Crescent, 16% of the Moon is Illuminated
May 8
Waxing Crescent
May 11
First Quarter
May 18
Full
May 26
Last Quarter
Jun 3
New

Hourly Weather History & Observations

Time (CDT) Temp. Dew Point Humidity Pressure Visibility Wind Dir Wind Speed Gust Speed Precip Events Conditions
12:53 AM 57.0 °F 52.0 °F 83% 29.64 in 10.0 mi ESE 6.9 mph - N/A   Clear
1:36 AM 55.9 °F 51.1 °F 84% 29.74 in 10.0 mi East 10.4 mph - N/A   Mostly Cloudy
1:53 AM 57.0 °F 51.1 °F 81% 29.60 in 10.0 mi East 9.2 mph - N/A   Overcast
2:53 AM 55.9 °F 52.0 °F 87% 29.60 in 10.0 mi ESE 6.9 mph - N/A   Mostly Cloudy
2:55 AM 55.0 °F 52.0 °F 89% 29.72 in 10.0 mi SE 6.9 mph - N/A   Scattered Clouds
3:53 AM 53.1 °F 51.1 °F 93% 29.60 in 10.0 mi SE 8.1 mph - N/A   Clear
4:17 AM 54.0 °F 52.0 °F 93% 29.71 in 10.0 mi ESE 10.4 mph - N/A   Scattered Clouds
4:28 AM 57.0 °F 55.0 °F 93% 29.71 in 10.0 mi ESE 12.7 mph - N/A   Mostly Cloudy
4:46 AM 55.9 °F 55.0 °F 97% 29.70 in 1.5 mi ESE 13.8 mph - N/A   Overcast
4:48 AM 55.4 °F 53.6 °F 94% 29.70 in 0.8 mi ESE 11.5 mph - N/A   Overcast
4:50 AM 55.4 °F 53.6 °F 94% 29.71 in 0.5 mi ESE 12.7 mph - N/A Fog Fog
4:53 AM 55.9 °F 54.0 °F 93% 29.60 in 0.2 mi East 10.4 mph - N/A Fog Fog
5:01 AM 55.9 °F 55.0 °F 97% 29.70 in 0.2 mi ESE 10.4 mph - N/A Fog Fog
5:08 AM 55.9 °F 55.0 °F 97% 29.70 in 0.2 mi ESE 11.5 mph - N/A Fog Fog
5:53 AM 55.9 °F 55.0 °F 97% 29.61 in 0.2 mi ESE 10.4 mph - N/A Fog Fog
6:05 AM 55.9 °F 54.0 °F 93% 29.70 in 0.2 mi ESE 11.5 mph - N/A Fog Fog
6:36 AM 55.9 °F 55.0 °F 97% 29.68 in 0.2 mi Calm Calm - N/A Fog Fog
6:50 AM 55.4 °F 53.6 °F 94% 29.68 in 0.2 mi Calm Calm - N/A Fog Fog
6:53 AM 55.9 °F 54.0 °F 93% 29.59 in 0.2 mi SSE 3.5 mph - N/A Fog Fog
7:27 AM 54.0 °F 53.1 °F 97% 29.68 in 1.2 mi NW 5.8 mph - N/A   Overcast
7:53 AM 54.0 °F 53.1 °F 97% 29.59 in 0.5 mi East 3.5 mph - N/A   Overcast
8:53 AM 55.0 °F 54.0 °F 96% 29.61 in 2.0 mi SW 4.6 mph - N/A   Overcast
9:04 AM 55.0 °F 54.0 °F 96% 29.71 in 2.0 mi WSW 13.8 mph - N/A   Overcast
9:30 AM 55.0 °F 53.1 °F 93% 29.70 in 2.5 mi SSW 5.8 mph - N/A   Overcast
9:53 AM 55.0 °F 53.1 °F 93% 29.62 in 2.5 mi WSW 6.9 mph - N/A   Overcast
10:06 AM 55.0 °F 53.1 °F 93% 29.69 in 7.0 mi WSW 4.6 mph - N/A   Overcast
10:26 AM 57.0 °F 53.1 °F 87% 29.69 in 9.0 mi West 4.6 mph - N/A   Overcast
10:53 AM 57.9 °F 53.1 °F 84% 29.61 in 9.0 mi West 8.1 mph - N/A   Overcast
11:20 AM 57.9 °F 53.1 °F 84% 29.71 in 10.0 mi NW 5.8 mph - N/A   Overcast
11:53 AM 59.0 °F 54.0 °F 83% 29.62 in 8.0 mi NW 10.4 mph - N/A   Overcast
12:53 PM 64.0 °F 55.0 °F 73% 29.60 in 10.0 mi WNW 11.5 mph - N/A   Scattered Clouds
1:53 PM 66.0 °F 55.0 °F 68% 29.57 in 10.0 mi NNW 12.7 mph - N/A   Scattered Clouds
2:37 PM 66.0 °F 54.0 °F 65% 29.69 in 10.0 mi NNW 10.4 mph - N/A   Mostly Cloudy
2:45 PM 68.0 °F 54.0 °F 61% 29.68 in 10.0 mi North 11.5 mph 18.4 mph N/A   Mostly Cloudy
2:53 PM 66.9 °F 53.1 °F 61% 29.58 in 10.0 mi North 11.5 mph 19.6 mph N/A   Scattered Clouds
3:53 PM 70.0 °F 53.1 °F 55% 29.58 in 10.0 mi North 15.0 mph - N/A   Scattered Clouds
4:53 PM 70.0 °F 51.1 °F 51% 29.59 in 10.0 mi North 15.0 mph - N/A   Mostly Cloudy
5:38 PM 64.0 °F 52.0 °F 65% 29.72 in 10.0 mi North 19.6 mph 27.6 mph N/A Thunderstorm Mostly Cloudy
5:53 PM 66.0 °F 53.1 °F 63% 29.62 in 10.0 mi North 19.6 mph - N/A   Mostly Cloudy
6:53 PM 63.0 °F 51.1 °F 65% 29.65 in 10.0 mi NNE 19.6 mph 25.3 mph N/A   Clear
7:53 PM 57.0 °F 50.0 °F 77% 29.69 in 10.0 mi North 25.3 mph 29.9 mph N/A   Clear
8:53 PM 53.1 °F 48.9 °F 86% 29.73 in 10.0 mi North 17.3 mph - N/A   Clear
9:18 PM 53.1 °F 48.9 °F 86% 29.82 in 10.0 mi North 27.6 mph 32.2 mph N/A   Mostly Cloudy
9:25 PM 53.1 °F 48.9 °F 86% 29.82 in 10.0 mi North 25.3 mph 32.2 mph N/A   Mostly Cloudy
9:48 PM 53.6 °F 48.2 °F 82% 29.84 in 10.0 mi NNE 20.7 mph - N/A   Overcast
9:53 PM 53.1 °F 48.0 °F 83% 29.77 in 10.0 mi NNE 20.7 mph 27.6 mph N/A   Overcast
10:53 PM 52.0 °F 45.0 °F 77% 29.82 in 10.0 mi North 28.8 mph 36.8 mph N/A   Overcast
11:30 PM 48.9 °F 46.0 °F 90% 29.92 in 7.0 mi North 20.7 mph 33.4 mph 0.01 in Rain , Thunderstorm Light Rain
11:53 PM 48.0 °F 45.0 °F 89% 29.83 in 10.0 mi North 21.9 mph 35.7 mph 0.03 in Rain Light Rain
11:57 PM 48.0 °F 45.0 °F 89% 29.90 in 10.0 mi North 20.7 mph 33.4 mph 0.00 in   Overcast